WetterOnline ( http://www.wetteronline.de )

Wetter aktuell Waldmünchen

Aktuelles Wetter: Waldmünchen (499m)

6-stündlich | Neueste Meldungen
Ortszeit Temperatur Wetter
Di, 17.10. 2:00 6.2° C Nebel
Mo, 16.10. 20:00 11.4° C wolkenlos
Mo, 16.10. 14:00 18.8° C wolkenlos
Mo, 16.10. 8:00 4.6° C Nebel
Ortszeit Temperatur Wetter
Di, 17.10. 7:30 3.8° C Nebel
Di, 17.10. 7:00 4.1° C leicht bewölkt
Di, 17.10. 6:30 4.2° C Nebel
Di, 17.10. 6:00 4.3° C Nebel
Di, 17.10. 5:30 4.6° C Nebel
Di, 17.10. 5:00 5.2° C Nebel
Ortszeit Relative Feuchte Sichtweite
Di, 17.10. 2:00 100% 100 m
Mo, 16.10. 20:00 97% 5.0 km
Mo, 16.10. 14:00 62% 10 km
Mo, 16.10. 8:00 100% 0.2 km
Ortszeit Relative Feuchte Sichtweite
Di, 17.10. 7:30 100% 0.2 km
Di, 17.10. 7:00 100% 1.4 km
Di, 17.10. 6:30 99% 0.3 km
Di, 17.10. 6:00 100% 100 m
Di, 17.10. 5:30 99% 0.6 km
Di, 17.10. 5:00 100% 0.2 km
Ortszeit Niederschlagsmenge Niederschlagsart
Di, 17.10. 2:00 0.0 l/m2 in 6 Std. -
Mo, 16.10. 20:00 0.1 l/m2 in 12 Std. -
Mo, 16.10. 14:00 0.1 l/m2 in 6 Std. -
Mo, 16.10. 8:00 0.1 l/m2 in 12 Std. -
Ortszeit Niederschlagsmenge Niederschlagsart
Di, 17.10. 7:30 keine Meldung -
Di, 17.10. 7:00 0.1 l/m2 in 1 Std. -
Di, 17.10. 6:30 keine Meldung -
Di, 17.10. 6:00 0.0 l/m2 in 1 Std. -
Di, 17.10. 5:30 keine Meldung -
Di, 17.10. 5:00 0.0 l/m2 in 1 Std. -
Ortszeit Stärke Spitze Richtung
km/h Bft. km/h Grad Sektor
Di, 17.10. 2:00 6 1 7 90° O
Mo, 16.10. 20:00 6 1 19 90° O
Mo, 16.10. 14:00 11 2 25 230° SW
Mo, 16.10. 8:00 4 1 7 270° W
Ortszeit Stärke Spitze Richtung
km/h Bft. km/h Grad Sektor
Di, 17.10. 7:30 4 1 4 90° O
Di, 17.10. 7:00 0 0 7 - -
Di, 17.10. 6:30 2 1 6 100° O
Di, 17.10. 6:00 7 2 7 90° O
Di, 17.10. 5:30 4 1 4 80° O
Di, 17.10. 5:00 0 0 4 - -
Ortszeit Untergrenze Bedeckung Gattung
total tief tief mittel hoch
Di, 17.10. 2:00 <30 m 5/8 5/8 - - -
Mo, 16.10. 20:00 - 0/8 0/8 - - -
Mo, 16.10. 14:00 - 0/8 0/8 - - -
Mo, 16.10. 8:00 <30 m 8/8 8/8 - - -
Ortszeit Bedeckungsgrad in Achtel und Wolkenuntergrenze
Di, 17.10. 7:30 5(<30m)
Di, 17.10. 7:00 2(<30m)
Di, 17.10. 6:30 2(<30m)
Di, 17.10. 6:00 2(<30m)
Di, 17.10. 5:30 6(<30m)
Di, 17.10. 5:00 7(<30m)
Ortszeit Luftdruck NN (hPa) Tendenz (hPa in 3 Std.)
Di, 17.10. 2:00 1028 - 0,6
Mo, 16.10. 20:00 1028 + 0,5
Mo, 16.10. 14:00 1026 - 0,5
Mo, 16.10. 8:00 1029 + 0,3
Ortszeit Luftdruck NN (hPa) Tendenz (hPa in 3 Std.)
Di, 17.10. 7:30 1028 - 0,1
Di, 17.10. 7:00 1028 - 0,3
Di, 17.10. 6:30 1028 - 0,3
Di, 17.10. 6:00 1028 - 0,6
Di, 17.10. 5:30 1028 - 0,7
Di, 17.10. 5:00 1028 - 0,6
Ortszeit Schneehöhe (cm)
Di, 17.10. 2:00 0
Mo, 16.10. 20:00 0
Mo, 16.10. 14:00 -
Mo, 16.10. 8:00 -
Ortszeit Schneehöhe (cm)
Di, 17.10. 7:30 0
Di, 17.10. 7:00 0
Di, 17.10. 6:30 0
Di, 17.10. 6:00 0
Di, 17.10. 5:30 0
Di, 17.10. 5:00 0
Link zu dieser Seite / Seite empfehlen

Das Wetter in ...